Location: Nijmegen RU
(51.8233°N, 354.1314°E)
Time: 21:26:42
(UTC+02:00)

Envisat - Visible Passes

Search period start: 16 October 2019 00:00
Search period end: 26 October 2019 00:00
Orbit: 764 x 766 km, 98.1° (Epoch: 16 October)

Date Brightness Start Highest point End Pass type
(mag) Time Alt. Az. Time Alt. Az. Time Alt. Az.
16 Oct 3.1 20:21:32 10° SSE 20:26:38 81° WSW 20:31:45 10° NNW visible
16 Oct 6.1 22:04:00 10° WSW 22:06:30 14° W 22:09:00 10° NW visible
17 Oct 5.2 21:25:01 10° SSW 21:29:15 26° W 21:33:31 10° NW visible
18 Oct 6.5 07:50:09 10° ENE 07:52:11 12° E 07:54:12 10° ESE visible
18 Oct 4.0 20:47:16 10° S 20:52:12 51° W 20:57:11 10° NNW visible
19 Oct 3.0 20:10:17 10° SSE 20:15:22 84° ENE 20:20:29 10° NNW visible
19 Oct 5.9 21:51:51 10° SW 21:55:04 17° W 21:58:17 10° NW visible
20 Oct 6.0 08:14:21 10° NE 08:18:04 20° E 08:21:44 10° SE visible
20 Oct 4.9 21:13:22 10° SSW 21:17:53 32° W 21:22:26 10° NNW visible
21 Oct 3.6 20:35:52 10° S 20:40:54 62° WSW 20:45:58 10° NNW visible
22 Oct 3.0 19:59:04 10° SSE 20:04:07 70° ENE 20:09:11 10° N visible
22 Oct 5.6 21:39:56 10° SW 21:43:39 20° W 21:47:24 10° NW visible
23 Oct 6.1 08:03:29 10° NE 08:06:39 16° E 08:09:48 10° SE visible
23 Oct 4.5 21:01:48 10° SSW 21:06:32 38° W 21:11:18 10° NNW visible
24 Oct 3.2 20:24:32 10° S 20:29:36 76° WSW 20:34:44 10° NNW visible
24 Oct 6.1 22:07:25 10° WSW 22:09:32 12° W 22:11:39 10° WNW visible
25 Oct 5.6 08:28:14 10° NE 08:32:28 26° E 08:36:41 10° SSE visible
25 Oct 3.1 19:47:54 10° SSE 19:52:53 57° ENE 19:57:52 10° N visible
25 Oct 5.3 21:28:09 10° SW 21:32:16 24° W 21:36:24 10° NW visible
